Time,TemperatureF,DewpointF,PressureIn,WindDirection,WindDirectionDegrees,WindSpeedMPH,WindSpeedGustMPH,Humidity,HourlyPrecipIn,Conditions,Clouds,dailyrainin,SoftwareType,DateUTC
2013-02-08 00:02:00,22.0,1.0,30.64,SSE,153,1.0,4.0,39,0.00,,,0.00,,2013-02-08 05:02:00,
2013-02-08 00:12:00,22.0,1.0,30.64,SSE,153,1.0,4.0,39,0.00,,,0.00,,2013-02-08 05:12:00,
2013-02-08 00:22:00,22.0,1.0,30.64,ENE,78,0.0,3.0,39,0.00,,,0.00,,2013-02-08 05:22:00,
2013-02-08 00:32:00,22.0,2.0,30.63,East,83,2.0,6.0,41,0.00,,,0.00,,2013-02-08 05:32:00,
2013-02-08 00:42:00,22.0,2.0,30.63,East,83,2.0,6.0,41,0.00,,,0.00,,2013-02-08 05:42:00,
2013-02-08 00:52:00,22.0,2.0,30.63,NE,50,0.0,4.0,42,0.00,,,0.00,,2013-02-08 05:52:00,
2013-02-08 01:02:00,22.0,3.0,30.62,ENE,68,0.0,5.0,43,0.00,,,0.00,,2013-02-08 06:02:00,
2013-02-08 01:11:00,22.0,3.0,30.62,ENE,68,0.0,5.0,43,0.00,,,0.00,,2013-02-08 06:11:00,
2013-02-08 01:22:00,22.0,3.0,30.62,ENE,76,0.0,4.0,44,0.00,,,0.00,,2013-02-08 06:22:00,
2013-02-08 01:32:00,22.0,2.0,30.61,ENE,67,2.0,4.0,42,0.00,,,0.00,,2013-02-08 06:32:00,
2013-02-08 01:42:00,22.0,2.0,30.61,ENE,67,2.0,4.0,42,0.00,,,0.00,,2013-02-08 06:42:00,
2013-02-08 01:52:00,22.0,2.0,30.60,SSE,148,2.0,5.0,42,0.00,,,0.00,,2013-02-08 06:52:00,
2013-02-08 02:01:00,22.0,3.0,30.60,East,101,1.0,4.0,43,0.00,,,0.00,,2013-02-08 07:01:00,
2013-02-08 02:11:00,22.0,3.0,30.60,East,101,1.0,4.0,43,0.00,,,0.00,,2013-02-08 07:11:00,
2013-02-08 02:22:00,22.0,3.0,30.60,ENE,63,2.0,7.0,44,0.00,,,0.00,,2013-02-08 07:22:00,
2013-02-08 02:32:00,22.0,3.0,30.59,SW,214,2.0,5.0,44,0.00,,,0.00,,2013-02-08 07:32:00,
2013-02-08 02:42:00,22.0,5.0,30.58,ENE,65,2.0,5.0,47,0.00,,,0.00,,2013-02-08 07:42:00,
2013-02-08 02:52:00,22.0,5.0,30.58,ENE,65,2.0,5.0,47,0.00,,,0.00,,2013-02-08 07:52:00,
2013-02-08 03:01:00,22.0,7.0,30.57,ENE,70,2.0,5.0,51,0.00,,,0.00,,2013-02-08 08:01:00,
2013-02-08 03:11:00,22.0,6.0,30.56,ESE,113,3.0,6.0,50,0.00,,,0.00,,2013-02-08 08:11:00,
2013-02-08 03:22:00,22.0,6.0,30.56,ESE,113,3.0,6.0,50,0.00,,,0.00,,2013-02-08 08:22:00,
2013-02-08 03:32:00,21.0,5.0,30.56,NE,45,3.0,6.0,50,0.00,,,0.00,,2013-02-08 08:32:00,
2013-02-08 03:42:00,21.0,5.0,30.56,NE,45,3.0,6.0,50,0.00,,,0.00,,2013-02-08 08:42:00,
2013-02-08 03:52:00,21.0,5.0,30.54,ESE,115,3.0,7.0,49,0.00,,,0.00,,2013-02-08 08:52:00,
2013-02-08 04:03:00,21.0,6.0,30.53,East,79,4.0,6.0,51,0.00,,,0.00,,2013-02-08 09:03:00,
2013-02-08 04:11:00,21.0,6.0,30.53,East,79,4.0,6.0,51,0.00,,,0.00,,2013-02-08 09:11:00,
2013-02-08 04:21:00,21.0,7.0,30.53,ENE,69,2.0,6.0,53,0.00,,,0.00,,2013-02-08 09:21:00,
2013-02-08 04:32:00,21.0,8.0,30.53,NE,50,5.0,7.0,56,0.00,,,0.00,,2013-02-08 09:32:00,
2013-02-08 04:42:00,21.0,8.0,30.53,NE,50,5.0,7.0,56,0.00,,,0.00,,2013-02-08 09:42:00,
2013-02-08 04:52:00,21.0,9.0,30.52,East,92,4.0,7.0,59,0.00,,,0.00,,2013-02-08 09:52:00,
2013-02-08 05:01:00,21.0,10.0,30.52,ENE,74,4.0,7.0,61,0.00,,,0.00,,2013-02-08 10:01:00,
2013-02-08 05:12:00,21.0,10.0,30.52,ENE,74,4.0,7.0,61,0.00,,,0.00,,2013-02-08 10:12:00,
2013-02-08 05:22:00,21.0,10.0,30.53,ENE,58,4.0,6.0,62,0.00,,,0.00,,2013-02-08 10:22:00,
2013-02-08 05:32:00,21.0,10.0,30.52,ENE,68,3.0,5.0,63,0.00,,,0.00,,2013-02-08 10:32:00,
2013-02-08 05:42:00,21.0,10.0,30.52,ENE,68,3.0,5.0,63,0.00,,,0.00,,2013-02-08 10:42:00,
2013-02-08 05:51:00,21.0,11.0,30.51,ENE,77,3.0,5.0,65,0.00,,,0.00,,2013-02-08 10:51:00,
2013-02-08 06:01:00,21.0,12.0,30.51,ENE,68,2.0,5.0,67,0.00,,,0.00,,2013-02-08 11:01:00,
2013-02-08 06:11:00,21.0,12.0,30.51,ENE,68,2.0,5.0,67,0.00,,,0.00,,2013-02-08 11:11:00,
2013-02-08 06:22:00,21.0,13.0,30.50,NE,52,4.0,6.0,71,0.00,,,0.00,,2013-02-08 11:22:00,
2013-02-08 06:32:00,21.0,14.0,30.50,East,80,2.0,5.0,74,0.00,,,0.00,,2013-02-08 11:32:00,
2013-02-08 06:42:00,21.0,14.0,30.50,East,80,2.0,5.0,74,0.00,,,0.00,,2013-02-08 11:42:00,
2013-02-08 06:52:00,21.0,15.0,30.51,NE,47,5.0,7.0,76,0.00,,,0.00,,2013-02-08 11:52:00,
2013-02-08 07:02:00,21.0,15.0,30.50,ENE,70,3.0,6.0,77,0.00,,,0.00,,2013-02-08 12:02:00,
2013-02-08 07:11:00,21.0,15.0,30.50,ENE,70,3.0,6.0,77,0.00,,,0.00,,2013-02-08 12:11:00,
2013-02-08 07:22:00,21.0,15.0,30.49,ENE,58,4.0,7.0,78,0.00,,,0.00,,2013-02-08 12:22:00,
2013-02-08 07:33:00,21.0,15.0,30.49,ENE,58,4.0,7.0,78,0.00,,,0.00,,2013-02-08 12:33:00,
2013-02-08 07:42:00,21.0,15.0,30.49,ENE,58,4.0,7.0,78,0.00,,,0.00,,2013-02-08 12:42:00,
2013-02-08 07:52:00,20.0,15.0,30.49,NE,54,4.0,8.0,80,0.00,,,0.00,,2013-02-08 12:52:00,
2013-02-08 08:02:00,20.0,15.0,30.48,ENE,63,4.0,7.0,81,0.00,,,0.00,,2013-02-08 13:02:00,
2013-02-08 08:12:00,20.0,15.0,30.48,ENE,63,4.0,7.0,81,0.00,,,0.00,,2013-02-08 13:12:00,
2013-02-08 08:22:00,20.0,15.0,30.47,ENE,58,4.0,8.0,81,0.00,,,0.00,,2013-02-08 13:22:00,
2013-02-08 08:32:00,20.0,15.0,30.48,ENE,73,5.0,7.0,82,0.00,,,0.00,,2013-02-08 13:32:00,
2013-02-08 08:42:00,20.0,15.0,30.48,ENE,73,5.0,7.0,82,0.00,,,0.00,,2013-02-08 13:42:00,
2013-02-08 08:52:00,20.0,15.0,30.47,ENE,65,4.0,7.0,82,0.00,,,0.00,,2013-02-08 13:52:00,
2013-02-08 09:02:00,21.0,16.0,30.46,ESE,115,3.0,8.0,82,0.00,,,0.00,,2013-02-08 14:02:00,
2013-02-08 09:11:00,21.0,16.0,30.46,ESE,115,3.0,8.0,82,0.00,,,0.00,,2013-02-08 14:11:00,
2013-02-08 09:22:00,21.0,16.0,30.46,ESE,115,3.0,8.0,82,0.00,,,0.00,,2013-02-08 14:22:00,
2013-02-08 09:32:00,21.0,16.0,30.44,ENE,74,4.0,6.0,82,0.00,,,0.00,,2013-02-08 14:32:00,
2013-02-08 09:42:00,21.0,16.0,30.44,ENE,74,4.0,6.0,82,0.00,,,0.00,,2013-02-08 14:42:00,
2013-02-08 09:52:00,20.0,15.0,30.44,ENE,68,4.0,9.0,82,0.00,,,0.00,,2013-02-08 14:52:00,
2013-02-08 10:02:00,20.0,15.0,30.43,SE,129,3.0,5.0,82,0.00,,,0.00,,2013-02-08 15:02:00,
2013-02-08 10:12:00,20.0,15.0,30.43,SE,129,3.0,5.0,82,0.00,,,0.00,,2013-02-08 15:12:00,
2013-02-08 10:22:00,20.0,16.0,30.43,East,82,2.0,4.0,83,0.00,,,0.00,,2013-02-08 15:22:00,
2013-02-08 10:32:00,20.0,16.0,30.43,ENE,67,0.0,7.0,83,0.00,,,0.00,,2013-02-08 15:32:00,
2013-02-08 10:42:00,20.0,16.0,30.43,ENE,67,0.0,7.0,83,0.00,,,0.00,,2013-02-08 15:42:00,
2013-02-08 10:52:00,20.0,16.0,30.43,ENE,78,2.0,6.0,83,0.00,,,0.00,,2013-02-08 15:52:00,
2013-02-08 11:11:00,20.0,16.0,30.42,NE,49,1.0,4.0,83,0.00,,,0.00,,2013-02-08 16:11:00,
2013-02-08 11:22:00,20.0,16.0,30.41,ENE,70,2.0,4.0,83,0.00,,,0.00,,2013-02-08 16:22:00,
2013-02-08 11:32:00,20.0,16.0,30.40,NE,52,4.0,7.0,83,0.00,,,0.00,,2013-02-08 16:32:00,
2013-02-08 11:42:00,20.0,16.0,30.40,NE,52,4.0,7.0,83,0.00,,,0.00,,2013-02-08 16:42:00,
2013-02-08 11:52:00,19.0,15.0,30.39,NE,49,4.0,10.0,85,0.00,,,0.00,,2013-02-08 16:52:00,
2013-02-08 12:04:00,20.0,16.0,30.37,ENE,68,3.0,7.0,84,0.00,,,0.00,,2013-02-08 17:04:00,
2013-02-08 12:12:00,20.0,16.0,30.37,ENE,68,3.0,7.0,84,0.00,,,0.00,,2013-02-08 17:12:00,
2013-02-08 12:23:00,20.0,16.0,30.36,East,93,3.0,8.0,83,0.00,,,0.00,,2013-02-08 17:23:00,
2013-02-08 12:33:00,20.0,15.0,30.35,NE,52,3.0,11.0,82,0.00,,,0.00,,2013-02-08 17:33:00,
2013-02-08 12:42:00,20.0,15.0,30.35,NE,52,3.0,11.0,82,0.00,,,0.00,,2013-02-08 17:42:00,
2013-02-08 12:52:00,20.0,15.0,30.33,ESE,116,3.0,13.0,82,0.00,,,0.00,,2013-02-08 17:52:00,
2013-02-08 13:02:00,20.0,15.0,30.32,ENE,75,2.0,5.0,82,0.00,,,0.00,,2013-02-08 18:02:00,
2013-02-08 13:12:00,20.0,15.0,30.32,ENE,75,2.0,5.0,82,0.00,,,0.00,,2013-02-08 18:12:00,
2013-02-08 13:25:00,20.0,15.0,30.32,SE,143,2.0,7.0,82,0.00,,,0.00,,2013-02-08 18:25:00,
2013-02-08 13:35:00,20.0,15.0,30.31,South,170,0.0,4.0,81,0.00,,,0.00,,2013-02-08 18:35:00,
2013-02-08 13:43:00,20.0,15.0,30.31,South,170,0.0,4.0,81,0.00,,,0.00,,2013-02-08 18:43:00,
2013-02-08 13:52:00,20.0,15.0,30.29,East,90,0.0,3.0,81,0.00,,,0.00,,2013-02-08 18:52:00,
2013-02-08 14:02:00,20.0,15.0,30.29,SSE,162,2.0,4.0,82,0.00,,,0.00,,2013-02-08 19:02:00,
2013-02-08 14:12:00,20.0,15.0,30.29,SSE,162,2.0,4.0,82,0.00,,,0.00,,2013-02-08 19:12:00,
2013-02-08 14:22:00,20.0,15.0,30.26,ENE,77,4.0,8.0,82,0.00,,,0.00,,2013-02-08 19:22:00,
2013-02-08 14:32:00,20.0,16.0,30.25,NNW,330,0.0,7.0,83,0.00,,,0.00,,2013-02-08 19:32:00,
2013-02-08 14:42:00,20.0,16.0,30.25,NNW,330,0.0,7.0,83,0.00,,,0.00,,2013-02-08 19:42:00,
2013-02-08 14:52:00,20.0,16.0,30.25,East,98,2.0,6.0,83,0.00,,,0.00,,2013-02-08 19:52:00,
2013-02-08 15:02:00,20.0,16.0,30.23,SSW,198,1.0,7.0,84,0.00,,,0.00,,2013-02-08 20:02:00,
2013-02-08 15:12:00,20.0,16.0,30.23,SSW,198,1.0,7.0,84,0.00,,,0.00,,2013-02-08 20:12:00,
2013-02-08 15:22:00,20.0,16.0,30.23,NNW,330,1.0,5.0,83,0.00,,,0.00,,2013-02-08 20:22:00,
2013-02-08 15:32:00,19.0,15.0,30.22,ENE,67,2.0,8.0,83,0.00,,,0.00,,2013-02-08 20:32:00,
2013-02-08 15:42:00,19.0,15.0,30.22,ENE,67,2.0,8.0,83,0.00,,,0.00,,2013-02-08 20:42:00,
2013-02-08 15:52:00,19.0,15.0,30.21,NW,316,2.0,5.0,84,0.00,,,0.00,,2013-02-08 20:52:00,
2013-02-08 16:02:00,19.0,16.0,30.20,NW,309,3.0,7.0,86,0.00,,,0.00,,2013-02-08 21:02:00,
2013-02-08 16:12:00,19.0,16.0,30.20,NW,309,3.0,7.0,86,0.00,,,0.00,,2013-02-08 21:12:00,
2013-02-08 16:22:00,19.0,16.0,30.19,North,5,3.0,8.0,87,0.00,,,0.00,,2013-02-08 21:22:00,
2013-02-08 16:33:00,19.0,16.0,30.17,WSW,238,0.0,5.0,87,0.00,,,0.00,,2013-02-08 21:33:00,
2013-02-08 16:42:00,19.0,16.0,30.17,WSW,238,0.0,5.0,87,0.00,,,0.00,,2013-02-08 21:42:00,
2013-02-08 16:52:00,19.0,16.0,30.16,NE,46,3.0,6.0,87,0.00,,,0.00,,2013-02-08 21:52:00,
2013-02-08 17:02:00,18.0,15.0,30.15,NW,308,1.0,9.0,87,0.00,,,0.00,,2013-02-08 22:02:00,
2013-02-08 17:11:00,18.0,15.0,30.15,NW,308,1.0,9.0,87,0.00,,,0.00,,2013-02-08 22:11:00,
2013-02-08 17:22:00,18.0,15.0,30.15,SE,135,1.0,4.0,87,0.00,,,0.00,,2013-02-08 22:22:00,
2013-02-08 17:32:00,18.0,15.0,30.13,NW,314,3.0,9.0,87,0.00,,,0.00,,2013-02-08 22:32:00,
2013-02-08 17:42:00,18.0,15.0,30.13,NW,314,3.0,9.0,87,0.00,,,0.00,,2013-02-08 22:42:00,
2013-02-08 17:52:00,18.0,15.0,30.13,NW,314,3.0,9.0,87,0.00,,,0.00,,2013-02-08 22:52:00,
2013-02-08 18:02:00,17.0,14.0,30.12,SSW,197,2.0,8.0,88,0.00,,,0.00,,2013-02-08 23:02:00,
2013-02-08 18:11:00,17.0,14.0,30.12,SSW,197,2.0,8.0,88,0.00,,,0.00,,2013-02-08 23:11:00,
2013-02-08 18:22:00,17.0,14.0,30.12,East,91,0.0,7.0,89,0.00,,,0.00,,2013-02-08 23:22:00,
2013-02-08 18:32:00,17.0,14.0,30.11,WNW,286,3.0,11.0,89,0.00,,,0.00,,2013-02-08 23:32:00,
2013-02-08 18:42:00,17.0,14.0,30.11,WNW,286,3.0,11.0,89,0.00,,,0.00,,2013-02-08 23:42:00,
2013-02-08 18:52:00,17.0,14.0,30.10,ESE,122,3.0,10.0,89,0.00,,,0.00,,2013-02-08 23:52:00,
2013-02-08 19:02:00,17.0,14.0,30.10,NE,44,3.0,11.0,89,0.00,,,0.00,,2013-02-09 00:02:00,
2013-02-08 19:12:00,17.0,14.0,30.10,NE,44,3.0,11.0,89,0.00,,,0.00,,2013-02-09 00:12:00,
2013-02-08 19:22:00,17.0,15.0,30.10,North,9,2.0,9.0,90,0.00,,,0.00,,2013-02-09 00:22:00,
2013-02-08 19:32:00,17.0,15.0,30.08,NE,36,4.0,13.0,90,0.00,,,0.00,,2013-02-09 00:32:00,
2013-02-08 19:42:00,17.0,15.0,30.08,NE,36,4.0,13.0,90,0.00,,,0.00,,2013-02-09 00:42:00,
2013-02-08 19:52:00,17.0,15.0,30.06,ENE,70,2.0,10.0,90,0.00,,,0.00,,2013-02-09 00:52:00,
2013-02-08 20:02:00,17.0,15.0,30.06,ENE,70,3.0,7.0,90,0.00,,,0.00,,2013-02-09 01:02:00,
2013-02-08 20:11:00,17.0,15.0,30.06,ENE,70,3.0,7.0,90,0.00,,,0.00,,2013-02-09 01:11:00,
2013-02-08 20:22:00,17.0,15.0,30.06,East,90,4.0,12.0,90,0.00,,,0.00,,2013-02-09 01:22:00,
2013-02-08 20:32:00,17.0,15.0,30.05,ENE,67,4.0,11.0,90,0.00,,,0.00,,2013-02-09 01:32:00,
2013-02-08 20:42:00,17.0,15.0,30.05,ENE,67,4.0,11.0,90,0.00,,,0.00,,2013-02-09 01:42:00,
2013-02-08 20:52:00,17.0,15.0,30.04,NNE,23,1.0,17.0,90,0.00,,,0.00,,2013-02-09 01:52:00,
2013-02-08 21:01:00,17.0,15.0,30.03,NNE,24,4.0,7.0,90,0.00,,,0.00,,2013-02-09 02:01:00,
2013-02-08 21:11:00,17.0,15.0,30.03,NNE,24,4.0,7.0,90,0.00,,,0.00,,2013-02-09 02:11:00,
2013-02-08 21:22:00,17.0,15.0,30.03,ENE,68,4.0,11.0,90,0.00,,,0.00,,2013-02-09 02:22:00,
2013-02-08 21:32:00,16.0,14.0,30.03,East,100,3.0,10.0,90,0.00,,,0.00,,2013-02-09 02:32:00,
2013-02-08 21:42:00,16.0,14.0,30.03,East,100,3.0,10.0,90,0.00,,,0.00,,2013-02-09 02:42:00,
2013-02-08 21:52:00,16.0,14.0,30.02,East,94,4.0,9.0,90,0.00,,,0.00,,2013-02-09 02:52:00,
2013-02-08 22:02:00,16.0,14.0,30.00,NE,47,4.0,10.0,90,0.00,,,0.00,,2013-02-09 03:02:00,
2013-02-08 22:11:00,16.0,14.0,30.00,NE,47,4.0,10.0,90,0.00,,,0.00,,2013-02-09 03:11:00,
2013-02-08 22:22:00,16.0,14.0,29.98,East,80,1.0,7.0,90,0.00,,,0.00,,2013-02-09 03:22:00,
2013-02-08 22:32:00,16.0,14.0,29.98,ENE,69,2.0,8.0,90,0.00,,,0.00,,2013-02-09 03:32:00,
2013-02-08 22:42:00,16.0,14.0,29.98,ENE,69,2.0,8.0,90,0.00,,,0.00,,2013-02-09 03:42:00,
2013-02-08 22:52:00,16.0,14.0,29.96,East,88,2.0,9.0,90,0.00,,,0.00,,2013-02-09 03:52:00,
2013-02-08 23:03:00,16.0,14.0,29.96,NE,52,4.0,14.0,90,0.00,,,0.00,,2013-02-09 04:03:00,
2013-02-08 23:12:00,16.0,14.0,29.95,NE,56,5.0,11.0,90,0.00,,,0.00,,2013-02-09 04:12:00,
2013-02-08 23:23:00,16.0,14.0,29.95,NE,56,5.0,11.0,90,0.00,,,0.00,,2013-02-09 04:23:00,
2013-02-08 23:32:00,16.0,14.0,29.94,NE,46,2.0,14.0,91,0.00,,,0.00,,2013-02-09 04:32:00,
2013-02-08 23:42:00,16.0,14.0,29.94,NE,46,2.0,14.0,91,0.00,,,0.00,,2013-02-09 04:42:00,
2013-02-08 23:52:00,16.0,14.0,29.93,NNE,32,2.0,10.0,91,0.00,,,0.00,,2013-02-09 04:52:00,